#timestamp,LO_Frequency,Hit,StdDev 
1557165615.1,286046998.7,P
1557165635.9,286046998.5,Y
1557165655.7,286047000.4,P
1557165675.5,286047001.2,N
1557165695.4,286046999.0,N
1557165715.2,286046996.6,Y
1557165735.0,286046996.5,P
1557165735.9,286046996.5,N
1557165755.8,286046998.0,N
1557165775.6,286046996.6,N
1557165795.5,286046999.6,N
1557165815.3,286046998.7,N
1557165835.1,286046997.8,N
1557165855.9,286046995.1,Y
1557165875.7,286046999.0,P
1557165895.5,286046997.0,P
1557165915.4,286046998.4,N
1557165935.2,286047000.5,N
1557165955.1,286046998.1,N
1557165956.0,286046998.1,N
1557165975.8,286046998.1,N
1557165995.6,286047000.3,N
1557166015.5,286046999.8,N
1557166035.3,286047000.9,N
1557166055.2,286047000.0,N
1557166075.9,286046998.2,N
1557166095.7,286046999.1,N
1557166115.6,286046999.2,N
1557166135.4,286046998.6,N
1557166155.2,286046998.3,N
1557166175.1,286046999.2,N
1557166176.0,286046999.2,N
1557166195.8,286046996.9,Y
1557166215.7,286046997.1,P
1557166235.5,286046999.4,N
1557166255.3,286046999.2,N
1557166275.2,286046998.8,N
1557166295.9,286046998.1,N
1557166315.7,286046998.2,N
1557166335.6,286046998.7,N
1557166355.4,286046998.1,N
1557166375.3,286046997.5,Y
1557166395.1,286046997.2,P
1557166396.0,286046997.2,P
1557166415.8,286046997.5,P
1557166435.7,286046999.6,N
1557166455.5,286046998.3,N
1557166475.3,286046998.2,N
1557166495.2,286046999.8,N
1557166515.0,286047001.7,N
1557166515.9,286047001.7,N
1557166535.8,286047000.6,N
1557166555.6,286047002.4,N
1557166575.4,286046998.2,N
1557166595.3,286046998.1,N
1557166615.1,286047000.8,N
1557166635.8,286047000.9,N
1557166655.7,286046998.4,N
1557166675.5,286046999.2,N
1557166695.4,286047001.0,N
1557166715.2,286047002.6,N
1557166735.0,286047001.6,N
1557166735.9,286047001.6,N
1557166755.8,286047003.6,N
1557166775.6,286047001.7,N
1557166795.4,286047003.6,N
1557166815.3,286047004.3,N
1557166835.1,286047003.2,N
1557166855.9,286047004.4,N
1557166875.7,286047004.7,N
1557166895.5,286047003.6,N
1557166915.4,286047003.0,N
1557166935.2,286047004.5,N
1557166955.0,286047004.7,N
1557166955.9,286047004.7,N
1557166975.8,286047005.9,N
1557166995.6,286047003.7,N
1557167015.5,286047006.0,N
1557167035.3,286047001.4,N
1557167055.1,286047002.5,N
1557167075.9,286047004.4,N
1557167095.7,286047004.1,N
1557167115.5,286047003.7,N
1557167135.4,286047003.6,N
1557167155.2,286047004.0,N
1557167175.1,286047003.8,N
1557167176.0,286047003.8,N
1557167195.8,286047004.3,N
1557167215.6,286047004.3,N
1557167235.5,286047005.1,Y
1557167255.3,286047000.4,P
1557167275.1,286046999.6,N
1557167295.9,286046997.0,N
1557167315.7,286046996.7,N
1557167335.6,286047001.1,N
1557167355.4,286046998.3,N
1557167375.2,286046998.4,N
1557167395.1,286046998.6,N
1557167396.0,286046998.6,N
1557167415.8,286046999.1,N
1557167435.6,286046998.3,N
1557167455.5,286046999.4,N
1557167475.3,286047001.0,N
1557167495.2,286047000.4,N
1557167515.9,286046998.5,N
1557167535.7,286046998.9,N
1557167555.6,286046998.1,N
1557167575.4,286047000.6,N
1557167595.2,286047003.9,N
1557167615.1,286047000.3,N
1557167616.0,286047000.3,N
1557167635.8,286046998.6,N
1557167655.7,286046998.7,N
1557167675.5,286047000.4,N
1557167695.3,286046998.1,N
1557167715.2,286047000.5,N
1557167735.0,286046998.5,N
1557167735.9,286046998.5,N
1557167755.8,286047000.3,N
1557167775.6,286046999.7,N
1557167795.4,286047000.9,N
1557167815.3,286047000.7,N
1557167835.1,286047001.2,N
1557167855.9,286046999.0,N
1557167875.7,286046998.5,N
1557167895.5,286046998.2,N
1557167915.4,286047000.2,N
1557167935.2,286047004.3,Y
1557167955.0,286047002.6,P
1557167956.0,286047002.6,N
1557167975.8,286047002.7,N
1557167995.6,286047001.8,N
1557168015.5,286047001.7,N
1557168035.3,286047001.6,N
1557168055.1,286047000.2,N
1557168075.9,286047004.1,Y
1557168095.7,286047000.0,P
1557168115.5,286046997.1,P
1557168135.4,286046999.1,N
1557168155.2,286046996.9,N
1557168175.1,286046999.1,N
1557168176.0,286046999.1,N
1557168195.8,286046996.6,N
1557168215.6,286046998.2,N
1557168235.5,286046998.2,N
1557168255.3,286046998.2,N
1557168275.1,286047001.1,N
1557168295.9,286046998.2,N
1557168315.7,286046998.8,N
1557168335.6,286046999.0,N
1557168355.4,286046998.5,N
1557168375.2,286047001.2,N
1557168395.1,286047000.9,N
1557168396.0,286047000.9,N
1557168415.8,286047000.0,N
1557168435.6,286047000.4,N
1557168455.5,286047001.2,N
1557168475.3,286047000.9,N
1557168495.2,286047002.7,N
1557168515.9,286047001.7,N
1557168535.7,286047002.4,N
1557168555.6,286047001.8,N
1557168575.4,286047002.2,N
1557168595.2,286046999.8,N
1557168615.1,286047000.2,N
1557168616.0,286047000.2,N
1557168635.8,286047001.3,N
1557168655.7,286047002.3,N
1557168675.5,286046999.4,N
1557168695.3,286046999.3,N
1557168715.2,286047000.5,N
1557168735.9,286047000.9,N
1557168755.7,286047000.7,N
1557168775.6,286047000.2,N
1557168795.4,286047002.3,N
1557168815.2,286047001.3,N
1557168835.1,286047004.1,Y
1557168836.0,286047004.1,P
1557168855.8,286047001.8,N
1557168875.7,286047000.5,N
1557168895.5,286046998.1,N
1557168915.3,286047001.1,N
1557168935.2,286047001.0,N
1557168955.0,286047001.2,N
1557168955.9,286047001.2,N
1557168975.8,286047000.6,N
1557168995.6,286047001.0,N
1557169015.4,286047000.8,N
1557169035.3,286046999.8,N
1557169055.1,286047001.4,N
1557169075.8,286047001.8,N
1557169095.7,286047003.6,N
1557169115.5,286047001.4,N
1557169135.3,286047000.1,N
1557169155.2,286046998.3,N
1557169175.0,286046999.5,N
1557169175.9,286046999.5,N
1557169195.8,286046999.1,N
